| time (UTC) | temp C | wind direction | speed KPH | gust KPH | rain 1hr cm | rain 24hr cm | rain mn cm | humidity % | barometer mb |
| 20260509093555 | 14 | 0 | 0.0 | 0.0 | 0.00 | 0.00 | 0.00 | 41 | 1017.5 |
| 20260509093103 | 14 | 0 | 0.0 | 0.0 | 0.00 | 0.00 | 0.00 | 40 | 1017.4 |
| 20260509092554 | 14 | 0 | 0.0 | 0.0 | 0.00 | 0.00 | 0.00 | 41 | 1017.5 |
| 20260509092056 | 14 | 0 | 0.0 | 0.0 | 0.00 | 0.00 | 0.00 | 40 | 1017.5 |
| 20260509091607 | 14 | 0 | 0.0 | 0.0 | 0.00 | 0.00 | 0.00 | 38 | 1017.5 |
| 20260509091054 | 15 | 0 | 0.0 | 0.0 | 0.00 | 0.00 | 0.00 | 39 | 1017.5 |
| 20260509090554 | 15 | 0 | 0.0 | 0.0 | 0.00 | 0.00 | 0.00 | 39 | 1017.6 |
| 20260509090059 | 15 | 0 | 0.0 | 0.0 | 0.00 | 0.00 | 0.00 | 38 | 1017.6 |
| 20260509085556 | 15 | 0 | 0.0 | 0.0 | 0.00 | 0.00 | 0.00 | 38 | 1017.6 |
| 20260509085055 | 15 | 0 | 0.0 | 0.0 | 0.00 | 0.00 | 0.00 | 39 | 1017.5 |
| 20260509084608 | 15 | 0 | 0.0 | 0.0 | 0.00 | 0.00 | 0.00 | 40 | 1017.5 |
| 20260509084054 | 16 | 0 | 0.0 | 0.0 | 0.00 | 0.00 | 0.00 | 38 | 1017.3 |
| 20260509083555 | 16 | 0 | 0.0 | 0.0 | 0.00 | 0.00 | 0.00 | 33 | 1017.3 |
| 20260509083059 | 17 | 0 | 0.0 | 0.0 | 0.00 | 0.00 | 0.00 | 33 | 1017.3 |
| 20260509082554 | 17 | 0 | 0.0 | 0.0 | 0.00 | 0.00 | 0.00 | 32 | 1017.3 |
| 20260509082055 | 18 | 0 | 0.0 | 0.0 | 0.00 | 0.00 | 0.00 | 30 | 1017.3 |
| 20260509081600 | 18 | 0 | 0.0 | 0.0 | 0.00 | 0.00 | 0.00 | 29 | 1017.4 |
| 20260509081055 | 18 | 0 | 0.0 | 0.0 | 0.00 | 0.00 | 0.00 | 28 | 1017.2 |
| 20260509080554 | 18 | 0 | 0.0 | 0.0 | 0.00 | 0.00 | 0.00 | 28 | 1017.3 |
| 20260509080059 | 18 | 0 | 0.0 | 0.0 | 0.00 | 0.00 | 0.00 | 29 | 1017.2 |
| 20260509075555 | 18 | 0 | 0.0 | 0.0 | 0.00 | 0.00 | 0.00 | 31 | 1017.2 |
| 20260509075055 | 18 | 0 | 0.0 | 0.0 | 0.00 | 0.00 | 0.00 | 31 | 1017.4 |
| 20260509074558 | 18 | 0 | 0.0 | 0.0 | 0.00 | 0.00 | 0.00 | 30 | 1017.4 |
| 20260509074054 | 18 | 0 | 0.0 | 0.0 | 0.00 | 0.00 | 0.00 | 29 | 1017.4 |
| 20260509073555 | 18 | 0 | 0.0 | 0.0 | 0.00 | 0.00 | 0.00 | 30 | 1017.4 |
| 20260509073100 | 19 | 0 | 0.0 | 0.0 | 0.00 | 0.00 | 0.00 | 28 | 1017.3 |
| 20260509072556 | 19 | 0 | 0.0 | 0.0 | 0.00 | 0.00 | 0.00 | 28 | 1017.4 |
| 20260509072055 | 19 | 0 | 0.0 | 0.0 | 0.00 | 0.00 | 0.00 | 28 | 1017.5 |
| 20260509071600 | 19 | 0 | 0.0 | 0.0 | 0.00 | 0.00 | 0.00 | 28 | 1017.5 |
| 20260509071055 | 19 | 0 | 0.0 | 0.0 | 0.00 | 0.00 | 0.00 | 29 | 1017.5 |
| 20260509070606 | 19 | 0 | 0.0 | 0.0 | 0.00 | 0.00 | 0.00 | 28 | 1017.6 |
| 20260509070105 | 18 | 0 | 0.0 | 0.0 | 0.00 | 0.00 | 0.00 | 28 | 1017.5 |
| 20260509065556 | 18 | 0 | 0.0 | 0.0 | 0.00 | 0.00 | 0.00 | 28 | 1017.6 |
| 20260509065054 | 18 | 0 | 0.0 | 0.0 | 0.00 | 0.00 | 0.00 | 29 | 1017.6 |
| 20260509064602 | 19 | 0 | 0.0 | 0.0 | 0.00 | 0.00 | 0.00 | 29 | 1017.6 |
| 20260509064057 | 19 | 0 | 0.0 | 0.0 | 0.00 | 0.00 | 0.00 | 28 | 1017.6 |
| 20260509063556 | 19 | 0 | 0.0 | 0.0 | 0.00 | 0.00 | 0.00 | 29 | 1017.6 |
| 20260509063111 | 20 | 0 | 0.0 | 0.0 | 0.00 | 0.00 | 0.00 | 28 | 1017.6 |
| 20260509062554 | 21 | 0 | 0.0 | 8.0 | 0.00 | 0.00 | 0.00 | 25 | 1017.5 |
| 20260509062055 | 21 | 0 | 1.6 | 8.0 | 0.00 | 0.00 | 0.00 | 24 | 1017.6 |
| 20260509061617 | 21 | 303 | 1.6 | 11.3 | 0.00 | 0.00 | 0.00 | 24 | 1017.6 |
| 20260509061055 | 21 | 289 | 4.8 | 12.9 | 0.00 | 0.00 | 0.00 | 23 | 1017.6 |
| 20260509060555 | 21 | 300 | 6.4 | 14.5 | 0.00 | 0.00 | 0.00 | 23 | 1017.6 |
| 20260509060059 | 20 | 304 | 6.4 | 14.5 | 0.00 | 0.00 | 0.00 | 24 | 1017.5 |
| 20260509055555 | 20 | 295 | 6.4 | 11.3 | 0.00 | 0.00 | 0.00 | 26 | 1017.5 |
| 20260509055054 | 19 | 288 | 0.0 | 8.0 | 0.00 | 0.00 | 0.00 | 28 | 1017.5 |
| 20260509054554 | 19 | 0 | 0.0 | 8.0 | 0.00 | 0.00 | 0.00 | 28 | 1017.4 |
| 20260509054055 | 20 | 289 | 0.0 | 3.2 | 0.00 | 0.00 | 0.00 | 28 | 1017.4 |
| 20260509053556 | 20 | 0 | 0.0 | 4.8 | 0.00 | 0.00 | 0.00 | 27 | 1017.5 |
| 20260509053055 | 20 | 0 | 0.0 | 4.8 | 0.00 | 0.00 | 0.00 | 27 | 1017.6 |
| 20260509052556 | 20 | 0 | 0.0 | 8.0 | 0.00 | 0.00 | 0.00 | 27 | 1017.6 |
| 20260509052054 | 20 | 0 | 0.0 | 8.0 | 0.00 | 0.00 | 0.00 | 27 | 1017.5 |
| 20260509051559 | 20 | 0 | 0.0 | 8.0 | 0.00 | 0.00 | 0.00 | 27 | 1017.5 |
| 20260509051055 | 20 | 0 | 0.0 | 4.8 | 0.00 | 0.00 | 0.00 | 27 | 1017.6 |
| 20260509050553 | 20 | 0 | 0.0 | 1.6 | 0.00 | 0.00 | 0.00 | 27 | 1017.6 |
| 20260509050054 | 20 | 0 | 0.0 | 1.6 | 0.00 | 0.00 | 0.00 | 25 | 1017.6 |
| 20260509045555 | 20 | 0 | 0.0 | 9.7 | 0.00 | 0.00 | 0.00 | 25 | 1017.6 |
| 20260509045055 | 20 | 0 | 0.0 | 9.7 | 0.00 | 0.00 | 0.00 | 26 | 1017.6 |
| 20260509044553 | 20 | 0 | 0.0 | 1.6 | 0.00 | 0.00 | 0.00 | 25 | 1017.5 |
| 20260509044056 | 20 | 0 | 0.0 | 6.4 | 0.00 | 0.00 | 0.00 | 24 | 1017.6 |
| 20260509043555 | 20 | 0 | 0.0 | 6.4 | 0.00 | 0.00 | 0.00 | 25 | 1017.4 |
| 20260509043057 | 20 | 0 | 0.0 | 4.8 | 0.00 | 0.00 | 0.00 | 25 | 1017.5 |
| 20260509042555 | 20 | 0 | 0.0 | 4.8 | 0.00 | 0.00 | 0.00 | 25 | 1017.3 |
| 20260509042057 | 20 | 0 | 0.0 | 1.6 | 0.00 | 0.00 | 0.00 | 25 | 1017.4 |
| 20260509041556 | 20 | 0 | 0.0 | 0.0 | 0.00 | 0.00 | 0.00 | 24 | 1017.4 |
| 20260509041055 | 21 | 0 | 0.0 | 0.0 | 0.00 | 0.00 | 0.00 | 23 | 1017.4 |
| 20260509040554 | 21 | 0 | 0.0 | 0.0 | 0.00 | 0.00 | 0.00 | 21 | 1017.4 |
| 20260509040055 | 21 | 0 | 0.0 | 0.0 | 0.00 | 0.00 | 0.00 | 20 | 1017.3 |
| 20260509035555 | 22 | 0 | 0.0 | 0.0 | 0.00 | 0.00 | 0.00 | 20 | 1017.3 |
| 20260509035056 | 22 | 0 | 0.0 | 1.6 | 0.00 | 0.00 | 0.00 | 19 | 1017.1 |
| 20260509034554 | 22 | 0 | 0.0 | 6.4 | 0.00 | 0.00 | 0.00 | 19 | 1017.0 |
| 20260509034054 | 22 | 0 | 0.0 | 6.4 | 0.00 | 0.00 | 0.00 | 19 | 1016.8 |
| 20260509033555 | 23 | 0 | 0.0 | 6.4 | 0.00 | 0.00 | 0.00 | 19 | 1016.9 |
| 20260509033055 | 23 | 0 | 0.0 | 4.8 | 0.00 | 0.00 | 0.00 | 18 | 1016.8 |
| 20260509032555 | 23 | 0 | 0.0 | 4.8 | 0.00 | 0.00 | 0.00 | 18 | 1016.7 |
| 20260509032054 | 23 | 0 | 0.0 | 8.0 | 0.00 | 0.00 | 0.00 | 18 | 1016.7 |
| 20260509031559 | 23 | 0 | 0.0 | 8.0 | 0.00 | 0.00 | 0.00 | 18 | 1016.6 |
| 20260509031055 | 23 | 0 | 0.0 | 11.3 | 0.00 | 0.00 | 0.00 | 18 | 1016.7 |
| 20260509030555 | 23 | 0 | 0.0 | 11.3 | 0.00 | 0.00 | 0.00 | 18 | 1016.5 |
| 20260509030056 | 23 | 0 | 0.0 | 11.3 | 0.00 | 0.00 | 0.00 | 18 | 1016.4 |
| 20260509025557 | 23 | 0 | 0.0 | 9.7 | 0.00 | 0.00 | 0.00 | 18 | 1016.3 |
| 20260509025054 | 23 | 0 | 0.0 | 9.7 | 0.00 | 0.00 | 0.00 | 18 | 1016.4 |
| 20260509024553 | 23 | 0 | 0.0 | 3.2 | 0.00 | 0.00 | 0.00 | 17 | 1016.3 |
| 20260509024056 | 23 | 0 | 0.0 | 3.2 | 0.00 | 0.00 | 0.00 | 17 | 1016.3 |
| 20260509023557 | 24 | 0 | 0.0 | 6.4 | 0.00 | 0.00 | 0.00 | 17 | 1016.2 |
| 20260509023054 | 24 | 0 | 0.0 | 6.4 | 0.00 | 0.00 | 0.00 | 17 | 1016.1 |
| 20260509022554 | 24 | 0 | 0.0 | 9.7 | 0.00 | 0.00 | 0.00 | 17 | 1015.9 |
| 20260509022054 | 25 | 0 | 0.0 | 9.7 | 0.00 | 0.00 | 0.00 | 16 | 1015.9 |
| 20260509021555 | 25 | 0 | 0.0 | 4.8 | 0.00 | 0.00 | 0.00 | 16 | 1015.8 |
| 20260509021055 | 25 | 0 | 0.0 | 6.4 | 0.00 | 0.00 | 0.00 | 16 | 1015.8 |
| 20260509020555 | 25 | 0 | 0.0 | 6.4 | 0.00 | 0.00 | 0.00 | 16 | 1015.8 |
| 20260509020058 | 25 | 0 | 0.0 | 8.0 | 0.00 | 0.00 | 0.00 | 16 | 1015.7 |
| 20260509015555 | 26 | 0 | 0.0 | 8.0 | 0.00 | 0.00 | 0.00 | 16 | 1015.7 |
| 20260509015057 | 26 | 0 | 0.0 | 9.7 | 0.00 | 0.00 | 0.00 | 16 | 1015.7 |
| 20260509014553 | 26 | 0 | 0.0 | 16.1 | 0.00 | 0.00 | 0.00 | 15 | 1015.7 |
| 20260509014056 | 27 | 246 | 0.0 | 16.1 | 0.00 | 0.00 | 0.00 | 15 | 1015.5 |
| 20260509013555 | 27 | 0 | 3.2 | 14.5 | 0.00 | 0.00 | 0.00 | 15 | 1015.6 |
| 20260509013057 | 27 | 0 | 1.6 | 14.5 | 0.00 | 0.00 | 0.00 | 15 | 1015.5 |
| 20260509012556 | 27 | 275 | 0.0 | 14.5 | 0.00 | 0.00 | 0.00 | 15 | 1015.6 |
| 20260509012055 | 28 | 0 | 0.0 | 22.5 | 0.00 | 0.00 | 0.00 | 15 | 1015.5 |
| 20260509011556 | 28 | 0 | 3.2 | 22.5 | 0.00 | 0.00 | 0.00 | 14 | 1015.6 |
| 20260509011054 | 28 | 212 | 12.9 | 22.5 | 0.00 | 0.00 | 0.00 | 14 | 1015.6 |
| 20260509010554 | 28 | 312 | 12.9 | 25.7 | 0.00 | 0.00 | 0.00 | 14 | 1015.5 |
| 20260509010055 | 28 | 319 | 12.9 | 25.7 | 0.00 | 0.00 | 0.00 | 13 | 1015.4 |
| 20260509005554 | 28 | 303 | 8.0 | 17.7 | 0.00 | 0.00 | 0.00 | 13 | 1015.5 |
| 20260509005055 | 29 | 302 | 6.4 | 17.7 | 0.00 | 0.00 | 0.00 | 13 | 1015.5 |
| 20260509004606 | 29 | 268 | 1.6 | 17.7 | 0.00 | 0.00 | 0.00 | 13 | 1015.5 |
| 20260509004055 | 29 | 256 | 11.3 | 17.7 | 0.00 | 0.00 | 0.00 | 13 | 1015.5 |
| 20260509003555 | 30 | 293 | 4.8 | 14.5 | 0.00 | 0.00 | 0.00 | 13 | 1015.4 |
| 20260509003058 | 30 | 0 | 3.2 | 14.5 | 0.00 | 0.00 | 0.00 | 13 | 1015.5 |
| 20260509002554 | 30 | 231 | 1.6 | 9.7 | 0.00 | 0.00 | 0.00 | 13 | 1015.5 |
| 20260509002055 | 30 | 0 | 0.0 | 12.9 | 0.00 | 0.00 | 0.00 | 13 | 1015.4 |
| 20260509001556 | 30 | 0 | 1.6 | 12.9 | 0.00 | 0.00 | 0.00 | 13 | 1015.4 |
| 20260509001054 | 30 | 0 | 1.6 | 17.7 | 0.00 | 0.00 | 0.00 | 13 | 1015.4 |
| 20260509000555 | 30 | 0 | 1.6 | 17.7 | 0.00 | 0.00 | 0.00 | 13 | 1015.4 |
| 20260509000058 | 30 | 0 | 3.2 | 12.9 | 0.00 | 0.00 | 0.00 | 13 | 1015.4 |
| 20260508235553 | 30 | 244 | 1.6 | 17.7 | 0.00 | 0.00 | 0.00 | 12 | 1015.4 |
| 20260508235056 | 30 | 0 | 0.0 | 24.1 | 0.00 | 0.00 | 0.00 | 13 | 1015.4 |
| 20260508234556 | 30 | 230 | 3.2 | 24.1 | 0.00 | 0.00 | 0.00 | 13 | 1015.5 |
| 20260508234055 | 30 | 286 | 9.7 | 24.1 | 0.00 | 0.00 | 0.00 | 12 | 1015.6 |
| 20260508233554 | 30 | 0 | 3.2 | 14.5 | 0.00 | 0.00 | 0.00 | 13 | 1015.5 |
| 20260508233055 | 30 | 0 | 0.0 | 20.9 | 0.00 | 0.00 | 0.00 | 12 | 1015.5 |
| 20260508232555 | 30 | 307 | 3.2 | 27.4 | 0.00 | 0.00 | 0.00 | 12 | 1015.6 |
| 20260508232054 | 30 | 0 | 12.9 | 27.4 | 0.00 | 0.00 | 0.00 | 11 | 1015.5 |
| 20260508231603 | 30 | 305 | 3.2 | 14.5 | 0.00 | 0.00 | 0.00 | 12 | 1015.7 |
| 20260508231054 | 30 | 0 | 4.8 | 25.7 | 0.00 | 0.00 | 0.00 | 11 | 1015.7 |
| 20260508230555 | 30 | 312 | 9.7 | 25.7 | 0.00 | 0.00 | 0.00 | 10 | 1015.6 |
| 20260508230100 | 30 | 299 | 9.7 | 25.7 | 0.00 | 0.00 | 0.00 | 11 | 1015.6 |
| 20260508225555 | 30 | 339 | 3.2 | 16.1 | 0.00 | 0.00 | 0.00 | 12 | 1015.6 |
| 20260508225055 | 30 | 299 | 6.4 | 17.7 | 0.00 | 0.00 | 0.00 | 12 | 1015.6 |
| 20260508224558 | 30 | 352 | 1.6 | 20.9 | 0.00 | 0.00 | 0.00 | 11 | 1015.6 |
| 20260508224055 | 30 | 1 | 6.4 | 27.4 | 0.00 | 0.00 | 0.00 | 11 | 1015.7 |
| 20260508223557 | 30 | 2 | 11.3 | 27.4 | 0.00 | 0.00 | 0.00 | 11 | 1015.7 |
| 20260508223054 | 30 | 294 | 16.1 | 27.4 | 0.00 | 0.00 | 0.00 | 11 | 1015.8 |
| 20260508222554 | 30 | 300 | 3.2 | 17.7 | 0.00 | 0.00 | 0.00 | 12 | 1015.8 |
| 20260508222054 | 30 | 266 | 6.4 | 17.7 | 0.00 | 0.00 | 0.00 | 13 | 1015.8 |
| 20260508221559 | 30 | 330 | 6.4 | 25.7 | 0.00 | 0.00 | 0.00 | 11 | 1015.9 |
| 20260508221056 | 30 | 336 | 14.5 | 25.7 | 0.00 | 0.00 | 0.00 | 12 | 1016.0 |
| 20260508220555 | 30 | 216 | 0.0 | 27.4 | 0.00 | 0.00 | 0.00 | 12 | 1016.0 |
| 20260508220054 | 30 | 0 | 1.6 | 27.4 | 0.00 | 0.00 | 0.00 | 13 | 1016.0 |
| 20260508215555 | 30 | 312 | 12.9 | 27.4 | 0.00 | 0.00 | 0.00 | 13 | 1016.1 |
| 20260508215055 | 30 | 272 | 1.6 | 14.5 | 0.00 | 0.00 | 0.00 | 14 | 1016.1 |
| 20260508214600 | 29 | 14 | 1.6 | 14.5 | 0.00 | 0.00 | 0.00 | 12 | 1016.1 |
| 20260508214055 | 29 | 0 | 0.0 | 11.3 | 0.00 | 0.00 | 0.00 | 13 | 1016.3 |
| 20260508213555 | 29 | 0 | 0.0 | 12.9 | 0.00 | 0.00 | 0.00 | 14 | 1016.4 |
| 20260508213058 | 28 | 0 | 0.0 | 12.9 | 0.00 | 0.00 | 0.00 | 13 | 1016.4 |
| 20260508212555 | 28 | 360 | 3.2 | 19.3 | 0.00 | 0.00 | 0.00 | 14 | 1016.5 |
| 20260508212051 | 28 | 0 | 3.2 | 19.3 | 0.00 | 0.00 | 0.00 | 13 | 1016.5 |
| 20260508211559 | 28 | 333 | 9.7 | 19.3 | 0.00 | 0.00 | 0.00 | 14 | 1016.7 |
| 20260508211055 | 28 | 1 | 0.0 | 14.5 | 0.00 | 0.00 | 0.00 | 15 | 1016.6 |
| 20260508210556 | 28 | 0 | 0.0 | 14.5 | 0.00 | 0.00 | 0.00 | 13 | 1016.8 |
| 20260508205559 | 29 | 359 | 8.0 | 22.5 | 0.00 | 0.00 | 0.00 | 14 | 1017.0 |
| 20260508205054 | 29 | 1 | 11.3 | 22.5 | 0.00 | 0.00 | 0.00 | 14 | 1017.1 |
| 20260508204557 | 29 | 354 | 4.8 | 19.3 | 0.00 | 0.00 | 0.00 | 13 | 1017.0 |
| 20260508204055 | 29 | 266 | 1.6 | 11.3 | 0.00 | 0.00 | 0.00 | 15 | 1017.0 |
| 20260508203555 | 28 | 0 | 0.0 | 22.5 | 0.00 | 0.00 | 0.00 | 14 | 1017.1 |
| 20260508203101 | 28 | 0 | 1.6 | 22.5 | 0.00 | 0.00 | 0.00 | 14 | 1017.2 |
| 20260508202552 | 28 | 320 | 4.8 | 17.7 | 0.00 | 0.00 | 0.00 | 14 | 1017.3 |
| 20260508202055 | 28 | 0 | 4.8 | 17.7 | 0.00 | 0.00 | 0.00 | 13 | 1017.3 |
| 20260508201602 | 28 | 359 | 4.8 | 22.5 | 0.00 | 0.00 | 0.00 | 13 | 1017.3 |
| 20260508201052 | 29 | 273 | 6.4 | 22.5 | 0.00 | 0.00 | 0.00 | 14 | 1017.4 |
| 20260508200556 | 28 | 250 | 6.4 | 19.3 | 0.00 | 0.00 | 0.00 | 14 | 1017.4 |
| 20260508200057 | 29 | 335 | 1.6 | 16.1 | 0.00 | 0.00 | 0.00 | 13 | 1017.5 |
| 20260508195555 | 28 | 305 | 0.0 | 19.3 | 0.00 | 0.00 | 0.00 | 15 | 1017.6 |
| 20260508195055 | 28 | 0 | 0.0 | 19.3 | 0.00 | 0.00 | 0.00 | 14 | 1017.6 |
| 20260508194553 | 28 | 310 | 9.7 | 19.3 | 0.00 | 0.00 | 0.00 | 14 | 1017.7 |
| 20260508194052 | 28 | 307 | 1.6 | 25.7 | 0.00 | 0.00 | 0.00 | 14 | 1017.6 |
| 20260508193555 | 28 | 261 | 8.0 | 25.7 | 0.00 | 0.00 | 0.00 | 15 | 1017.7 |
| 20260508193057 | 28 | 315 | 12.9 | 25.7 | 0.00 | 0.00 | 0.00 | 14 | 1017.7 |
| 20260508192555 | 28 | 293 | 4.8 | 22.5 | 0.00 | 0.00 | 0.00 | 15 | 1017.7 |
| 20260508192056 | 27 | 295 | 6.4 | 24.1 | 0.00 | 0.00 | 0.00 | 15 | 1017.8 |
| 20260508191553 | 27 | 342 | 12.9 | 24.1 | 0.00 | 0.00 | 0.00 | 14 | 1018.0 |
| 20260508191055 | 28 | 312 | 14.5 | 24.1 | 0.00 | 0.00 | 0.00 | 15 | 1018.1 |
| 20260508190555 | 28 | 309 | 8.0 | 24.1 | 0.00 | 0.00 | 0.00 | 15 | 1018.0 |
| 20260508190054 | 27 | 291 | 8.0 | 22.5 | 0.00 | 0.00 | 0.00 | 16 | 1018.1 |
| 20260508185600 | 27 | 316 | 9.7 | 22.5 | 0.00 | 0.00 | 0.00 | 16 | 1018.1 |
| 20260508185055 | 27 | 306 | 11.3 | 22.5 | 0.00 | 0.00 | 0.00 | 15 | 1018.2 |
| 20260508184553 | 27 | 1 | 14.5 | 22.5 | 0.00 | 0.00 | 0.00 | 15 | 1018.1 |
| 20260508184054 | 27 | 288 | 3.2 | 19.3 | 0.00 | 0.00 | 0.00 | 16 | 1018.1 |
| 20260508183554 | 27 | 0 | 4.8 | 19.3 | 0.00 | 0.00 | 0.00 | 16 | 1018.2 |
| 20260508183056 | 27 | 315 | 8.0 | 19.3 | 0.00 | 0.00 | 0.00 | 15 | 1018.2 |
| 20260508182555 | 27 | 0 | 6.4 | 17.7 | 0.00 | 0.00 | 0.00 | 16 | 1018.2 |
| 20260508182054 | 26 | 316 | 8.0 | 20.9 | 0.00 | 0.00 | 0.00 | 16 | 1018.2 |
| 20260508181602 | 27 | 354 | 8.0 | 20.9 | 0.00 | 0.00 | 0.00 | 17 | 1018.3 |
| 20260508181056 | 26 | 282 | 8.0 | 20.9 | 0.00 | 0.00 | 0.00 | 15 | 1018.3 |
| 20260508180554 | 26 | 312 | 9.7 | 20.9 | 0.00 | 0.00 | 0.00 | 19 | 1018.4 |
| 20260508180056 | 26 | 277 | 8.0 | 19.3 | 0.00 | 0.00 | 0.00 | 17 | 1018.5 |
| 20260508175555 | 26 | 359 | 8.0 | 19.3 | 0.00 | 0.00 | 0.00 | 18 | 1018.4 |
| 20260508175056 | 26 | 1 | 8.0 | 19.3 | 0.00 | 0.00 | 0.00 | 18 | 1018.5 |
| 20260508174606 | 26 | 359 | 3.2 | 19.3 | 0.00 | 0.00 | 0.00 | 20 | 1018.6 |
| 20260508174055 | 25 | 0 | 9.7 | 19.3 | 0.00 | 0.00 | 0.00 | 18 | 1018.5 |
| 20260508173556 | 25 | 356 | 6.4 | 19.3 | 0.00 | 0.00 | 0.00 | 21 | 1018.6 |
| 20260508173059 | 25 | 354 | 11.3 | 19.3 | 0.00 | 0.00 | 0.00 | 20 | 1018.5 |
| 20260508172556 | 25 | 10 | 9.7 | 25.7 | 0.00 | 0.00 | 0.00 | 18 | 1018.4 |
| 20260508172055 | 25 | 1 | 8.0 | 25.7 | 0.00 | 0.00 | 0.00 | 19 | 1018.6 |
| 20260508171554 | 25 | 309 | 12.9 | 25.7 | 0.00 | 0.00 | 0.00 | 18 | 1018.7 |
| 20260508171054 | 25 | 359 | 6.4 | 17.7 | 0.00 | 0.00 | 0.00 | 18 | 1018.8 |
| 20260508170555 | 25 | 1 | 8.0 | 19.3 | 0.00 | 0.00 | 0.00 | 19 | 1018.8 |
| 20260508170055 | 25 | 342 | 9.7 | 19.3 | 0.00 | 0.00 | 0.00 | 21 | 1018.8 |
| 20260508165554 | 25 | 7 | 3.2 | 17.7 | 0.00 | 0.00 | 0.00 | 22 | 1018.8 |
| 20260508165054 | 24 | 20 | 9.7 | 19.3 | 0.00 | 0.00 | 0.00 | 23 | 1019.0 |
| 20260508164553 | 23 | 326 | 11.3 | 24.1 | 0.00 | 0.00 | 0.00 | 21 | 1019.1 |
| 20260508164055 | 24 | 359 | 8.0 | 24.1 | 0.00 | 0.00 | 0.00 | 23 | 1019.0 |
| 20260508163554 | 23 | 318 | 9.7 | 20.9 | 0.00 | 0.00 | 0.00 | 22 | 1019.1 |
| 20260508163055 | 23 | 4 | 8.0 | 16.1 | 0.00 | 0.00 | 0.00 | 22 | 1019.1 |
| 20260508162553 | 23 | 332 | 4.8 | 16.1 | 0.00 | 0.00 | 0.00 | 23 | 1019.1 |
| 20260508162053 | 23 | 0 | 8.0 | 16.1 | 0.00 | 0.00 | 0.00 | 24 | 1019.1 |
| 20260508161555 | 22 | 350 | 0.0 | 11.3 | 0.00 | 0.00 | 0.00 | 29 | 1019.1 |
| 20260508161055 | 22 | 0 | 3.2 | 11.3 | 0.00 | 0.00 | 0.00 | 29 | 1019.1 |
| 20260508160558 | 22 | 359 | 6.4 | 11.3 | 0.00 | 0.00 | 0.00 | 29 | 1019.1 |
| 20260508160056 | 22 | 0 | 4.8 | 11.3 | 0.00 | 0.00 | 0.00 | 28 | 1019.1 |
| 20260508155557 | 22 | 18 | 0.0 | 6.4 | 0.00 | 0.00 | 0.00 | 32 | 1019.1 |
| 20260508155055 | 21 | 0 | 0.0 | 0.0 | 0.00 | 0.00 | 0.00 | 32 | 1019.1 |
| 20260508154559 | 21 | 0 | 0.0 | 0.0 | 0.00 | 0.00 | 0.00 | 31 | 1019.1 |
| 20260508154054 | 21 | 0 | 0.0 | 0.0 | 0.00 | 0.00 | 0.00 | 30 | 1019.2 |
| 20260508153555 | 21 | 0 | 0.0 | 0.0 | 0.00 | 0.00 | 0.00 | 30 | 1019.1 |
| 20260508153056 | 20 | 0 | 0.0 | 0.0 | 0.00 | 0.00 | 0.00 | 31 | 1019.3 |
| 20260508152554 | 20 | 0 | 0.0 | 0.0 | 0.00 | 0.00 | 0.00 | 32 | 1019.2 |
| 20260508152053 | 20 | 0 | 0.0 | 0.0 | 0.00 | 0.00 | 0.00 | 32 | 1019.2 |
| 20260508151557 | 20 | 0 | 0.0 | 0.0 | 0.00 | 0.00 | 0.00 | 33 | 1019.3 |
| 20260508151055 | 20 | 0 | 0.0 | 0.0 | 0.00 | 0.00 | 0.00 | 36 | 1019.3 |
| 20260508150553 | 19 | 0 | 0.0 | 0.0 | 0.00 | 0.00 | 0.00 | 35 | 1019.3 |
| 20260508150056 | 19 | 0 | 0.0 | 0.0 | 0.00 | 0.00 | 0.00 | 34 | 1019.3 |
| 20260508145555 | 19 | 0 | 0.0 | 6.4 | 0.00 | 0.00 | 0.00 | 34 | 1019.3 |
| 20260508145056 | 19 | 0 | 0.0 | 6.4 | 0.00 | 0.00 | 0.00 | 35 | 1019.3 |
| 20260508144556 | 19 | 0 | 0.0 | 0.0 | 0.00 | 0.00 | 0.00 | 35 | 1019.3 |
| 20260508144055 | 19 | 0 | 0.0 | 3.2 | 0.00 | 0.00 | 0.00 | 33 | 1019.3 |
| 20260508143552 | 19 | 0 | 0.0 | 3.2 | 0.00 | 0.00 | 0.00 | 33 | 1019.3 |
| 20260508143051 | 18 | 0 | 0.0 | 3.2 | 0.00 | 0.00 | 0.00 | 33 | 1019.2 |
| 20260508142552 | 18 | 0 | 0.0 | 0.0 | 0.00 | 0.00 | 0.00 | 34 | 1019.3 |
| 20260508142055 | 18 | 0 | 0.0 | 0.0 | 0.00 | 0.00 | 0.00 | 36 | 1019.2 |
| 20260508141614 | 18 | 0 | 0.0 | 0.0 | 0.00 | 0.00 | 0.00 | 36 | 1019.3 |
| 20260508141055 | 17 | 0 | 0.0 | 0.0 | 0.00 | 0.00 | 0.00 | 35 | 1019.3 |
| 20260508140554 | 17 | 0 | 0.0 | 0.0 | 0.00 | 0.00 | 0.00 | 36 | 1019.2 |
| 20260508140055 | 17 | 0 | 0.0 | 0.0 | 0.00 | 0.00 | 0.00 | 37 | 1019.2 |
| 20260508135555 | 16 | 0 | 0.0 | 0.0 | 0.00 | 0.00 | 0.00 | 39 | 1019.0 |
| 20260508135054 | 16 | 0 | 0.0 | 0.0 | 0.00 | 0.00 | 0.00 | 42 | 1019.0 |
| 20260508134612 | 15 | 0 | 0.0 | 0.0 | 0.00 | 0.00 | 0.00 | 44 | 1018.9 |
| 20260508134054 | 14 | 0 | 0.0 | 0.0 | 0.00 | 0.00 | 0.00 | 49 | 1018.9 |
| 20260508133553 | 13 | 0 | 0.0 | 0.0 | 0.00 | 0.00 | 0.00 | 53 | 1018.8 |
| 20260508133100 | 12 | 0 | 0.0 | 0.0 | 0.00 | 0.00 | 0.00 | 52 | 1018.8 |
| 20260508132555 | 12 | 0 | 0.0 | 0.0 | 0.00 | 0.00 | 0.00 | 56 | 1018.7 |
| 20260508132055 | 11 | 0 | 0.0 | 0.0 | 0.00 | 0.00 | 0.00 | 56 | 1018.6 |
| 20260508131557 | 11 | 0 | 0.0 | 0.0 | 0.00 | 0.00 | 0.00 | 56 | 1018.6 |
| 20260508131055 | 10 | 0 | 0.0 | 0.0 | 0.00 | 0.00 | 0.00 | 60 | 1018.6 |
| 20260508130554 | 10 | 0 | 0.0 | 0.0 | 0.00 | 0.00 | 0.00 | 60 | 1018.6 |
| 20260508130053 | 9 | 0 | 0.0 | 0.0 | 0.00 | 0.00 | 0.00 | 60 | 1018.5 |
| 20260508125554 | 9 | 0 | 0.0 | 0.0 | 0.00 | 0.00 | 0.00 | 58 | 1018.6 |
| 20260508125053 | 9 | 0 | 0.0 | 0.0 | 0.00 | 0.00 | 0.00 | 58 | 1018.5 |
| 20260508124604 | 9 | 0 | 0.0 | 0.0 | 0.00 | 0.00 | 0.00 | 58 | 1018.5 |
| 20260508124053 | 8 | 0 | 0.0 | 0.0 | 0.00 | 0.00 | 0.00 | 59 | 1018.4 |
| 20260508123555 | 8 | 0 | 0.0 | 0.0 | 0.00 | 0.00 | 0.00 | 59 | 1018.4 |
| 20260508123054 | 9 | 0 | 0.0 | 0.0 | 0.00 | 0.00 | 0.00 | 58 | 1018.4 |
| 20260508122556 | 8 | 0 | 0.0 | 0.0 | 0.00 | 0.00 | 0.00 | 58 | 1018.2 |
| 20260508122057 | 8 | 0 | 0.0 | 0.0 | 0.00 | 0.00 | 0.00 | 60 | 1018.1 |
| 20260508121601 | 8 | 0 | 0.0 | 0.0 | 0.00 | 0.00 | 0.00 | 62 | 1018.2 |
| 20260508121054 | 8 | 0 | 0.0 | 0.0 | 0.00 | 0.00 | 0.00 | 61 | 1018.2 |
| 20260508120557 | 8 | 0 | 0.0 | 0.0 | 0.00 | 0.00 | 0.00 | 60 | 1018.2 |
| 20260508120058 | 8 | 0 | 0.0 | 0.0 | 0.00 | 0.00 | 0.00 | 58 | 1018.2 |
| 20260508115555 | 9 | 0 | 0.0 | 0.0 | 0.00 | 0.00 | 0.00 | 56 | 1018.1 |
| 20260508115054 | 10 | 0 | 0.0 | 0.0 | 0.00 | 0.00 | 0.00 | 55 | 1018.1 |
| 20260508114557 | 10 | 0 | 0.0 | 0.0 | 0.00 | 0.00 | 0.00 | 55 | 1018.1 |
| 20260508114055 | 10 | 0 | 0.0 | 0.0 | 0.00 | 0.00 | 0.00 | 55 | 1018.0 |
| 20260508113552 | 10 | 0 | 0.0 | 0.0 | 0.00 | 0.00 | 0.00 | 55 | 1018.0 |
| 20260508113107 | 10 | 0 | 0.0 | 0.0 | 0.00 | 0.00 | 0.00 | 54 | 1018.0 |
| 20260508112552 | 10 | 0 | 0.0 | 0.0 | 0.00 | 0.00 | 0.00 | 53 | 1018.1 |
| 20260508112052 | 10 | 0 | 0.0 | 0.0 | 0.00 | 0.00 | 0.00 | 52 | 1017.9 |
| 20260508111604 | 11 | 0 | 0.0 | 0.0 | 0.00 | 0.00 | 0.00 | 52 | 1017.9 |
| 20260508111054 | 11 | 0 | 0.0 | 0.0 | 0.00 | 0.00 | 0.00 | 51 | 1017.9 |
| 20260508110555 | 11 | 0 | 0.0 | 0.0 | 0.00 | 0.00 | 0.00 | 48 | 1017.9 |
| 20260508110101 | 12 | 0 | 0.0 | 0.0 | 0.00 | 0.00 | 0.00 | 48 | 1017.8 |
| 20260508105552 | 12 | 0 | 0.0 | 1.6 | 0.00 | 0.00 | 0.00 | 46 | 1017.8 |
| 20260508105056 | 12 | 0 | 0.0 | 1.6 | 0.00 | 0.00 | 0.00 | 45 | 1017.7 |
| 20260508104557 | 13 | 0 | 0.0 | 0.0 | 0.00 | 0.00 | 0.00 | 44 | 1017.8 |
| 20260508104055 | 13 | 0 | 0.0 | 0.0 | 0.00 | 0.00 | 0.00 | 43 | 1017.7 |
| 20260508103555 | 13 | 0 | 0.0 | 0.0 | 0.00 | 0.00 | 0.00 | 42 | 1017.7 |
| 20260508103055 | 13 | 0 | 0.0 | 0.0 | 0.00 | 0.00 | 0.00 | 43 | 1017.6 |
| 20260508102554 | 13 | 0 | 0.0 | 0.0 | 0.00 | 0.00 | 0.00 | 43 | 1017.6 |
| 20260508102057 | 13 | 0 | 0.0 | 0.0 | 0.00 | 0.00 | 0.00 | 44 | 1017.7 |
| 20260508101604 | 13 | 0 | 0.0 | 0.0 | 0.00 | 0.00 | 0.00 | 43 | 1017.6 |
| 20260508101056 | 13 | 0 | 0.0 | 0.0 | 0.00 | 0.00 | 0.00 | 44 | 1017.7 |
| 20260508100554 | 13 | 0 | 0.0 | 0.0 | 0.00 | 0.00 | 0.00 | 42 | 1017.7 |
| 20260508100057 | 14 | 0 | 0.0 | 0.0 | 0.00 | 0.00 | 0.00 | 42 | 1017.7 |
| 20260508095554 | 14 | 0 | 0.0 | 0.0 | 0.00 | 0.00 | 0.00 | 42 | 1017.7 |
| 20260508095054 | 14 | 0 | 0.0 | 8.0 | 0.00 | 0.00 | 0.00 | 40 | 1017.6 |
| 20260508094600 | 14 | 0 | 1.6 | 8.0 | 0.00 | 0.00 | 0.00 | 40 | 1017.7 |
| 20260508094054 | 14 | 0 | 0.0 | 0.0 | 0.00 | 0.00 | 0.00 | 40 | 1017.5 |